Regional Weather Roundup
Issued by NWS Albany, NY

Home | Current Version | Previous Version | Text Only | Print | Product List | Glossary On
Versions: 1 2 3 4 5 6 7 8 9 10 11 12 13 14 15 16 17 18 19 20 21 22 23 24 25 26 27
000
ASUS41 KALY 221010
RWRALY

NEW YORK STATE HOURLY WEATHER ROUNDUP
NATIONAL WEATHER SERVICE ALBANY NY
500 AM EST WED FEB 22 2017

NOTE: "FAIR" INDICATES FEW OR NO CLOUDS BELOW 12,000 FEET WITH NO
SIGNIFICANT WEATHER AND/OR NO OBSTRUCTIONS TO VISIBILITY.

NYZ032-033-038>043-046>054-057>066-NYZ062>081-082-084-221100-
EAST


CITY           SKY/WX    TMP DP  RH WIND       PRES   REMARKS
ALBANY         CLOUDY    39  29  67 S6        30.01S WCI  35
GLENS FALLS    CLOUDY    37  28  70 S3        30.00S
POUGHKEEPSIE   PTCLDY    36  32  85 SE3       30.02
NEWBURGH       CLOUDY    41  34  75 CALM      30.03F
MONTGOMERY     CLOUDY    38  33  82 CALM      30.01
WHITE PLAINS   CLOUDY    40  33  76 CALM      30.03
ISLIP          CLOUDY    42  39  89 SW8       30.05
NEW YORK CITY  CLOUDY    45  35  68 SW7       30.05F
CENTRAL PARK   CLOUDY    43  34  70 W3        30.08F
$$

NYZ005>009-017-018-044>046-055-056-221100-
CENTRAL


CITY           SKY/WX    TMP DP  RH WIND       PRES   REMARKS
FULTON         CLOUDY    41  32  70 VRB3      29.94S
SYRACUSE       CLOUDY    38  32  79 NE3       29.94S
ROME           CLOUDY    38  31  76 SE5       29.97F WCI  34
ELMIRA         CLOUDY    37  30  75 CALM      29.95
BINGHAMTON     PTCLDY    37  28  70 S5        29.95  WCI  33
MONTICELLO     CLOUDY    36  30  80 CALM      30.00
$$

NYZ026>034-041>043-087-221100-
NORTH


CITY           SKY/WX    TMP DP  RH WIND       PRES   REMARKS
WATERTOWN      CLOUDY    41  34  76 NW3       29.93F
FORT DRUM      NOT AVBL
OGDENSBURG     MOCLDY    34  31  88 CALM      29.94R
MASSENA        CLOUDY    35  32  88 CALM      29.95R
SARANAC LAKE   CLOUDY    36  32  85 S3        29.90F
PLATTSBURGH    CLOUDY    36  26  67 CALM      29.96
$$

NYZ001>004-010>016-019>021-085-221100-
WEST


CITY           SKY/WX    TMP DP  RH WIND       PRES   REMARKS
NIAGARA FALLS  PTCLDY    37  33  85 SE5       29.90F FOG     WCI  33
BUFFALO        CLOUDY    43  41  93 E5        29.91S FOG
DUNKIRK        MOCLDY    43  40  89 CALM      29.92R
JAMESTOWN      CLOUDY    46  32  57 S7        29.92S
WELLSVILLE     MOCLDY    46  33  60 CALM      29.95R
ROCHESTER      PTCLDY    38  33  82 CALM      29.93S
PENN YAN       CLOUDY    45  30  55 SW9       29.93S
$$

             KEY
       WCI = WIND CHILL INDEX
       VSB = VISIBILITY
       HX  = HEAT INDEX
$$




USA.gov is the U.S. government's official web portal to all federal, state and local government web resources and services.